�������l�o���
Date,Time,MP-1(��Sv/h),MP-2(��Sv/h),MP-3(��Sv/h),MP-4(��Sv/h),MP-5(��Sv/h),MP-6(��Sv/h),MP-7(��Sv/h),MP-8(��Sv/h),����,����(m/s),���J
2018/10/14,00:00,0.774,1.168,0.820,1.459,1.049,0.458,0.801,0.762,�k��,5.2,��
2018/10/14,00:10,0.775,1.169,0.822,1.463,1.051,0.457,0.802,0.762,�k�k��,4.7,��
2018/10/14,00:20,0.773,1.169,0.822,1.459,1.052,0.456,0.804,0.760,�k�k��,5.0,��
2018/10/14,00:30,0.775,1.167,0.820,1.463,1.051,0.457,0.802,0.761,�k�k��,5.0,��
2018/10/14,00:40,0.774,1.169,0.819,1.460,1.050,0.458,0.803,0.759,�k�k��,6.5,��
2018/10/14,00:50,0.773,1.168,0.819,1.463,1.052,0.456,0.802,0.760,�k�k��,6.3,��
2018/10/14,01:00,0.776,1.170,0.818,1.463,1.054,0.457,0.803,0.760,�k�k��,6.3,��
2018/10/14,01:10,0.773,1.170,0.819,1.465,1.051,0.456,0.802,0.761,�k�k��,6.3,��
2018/10/14,01:20,0.775,1.167,0.818,1.461,1.051,0.456,0.802,0.763,�k�k��,6.2,��
2018/10/14,01:30,0.774,1.171,0.819,1.462,1.053,0.458,0.801,0.762,�k�k��,6.3,��
2018/10/14,01:40,0.776,1.170,0.820,1.463,1.051,0.457,0.801,0.761,�k�k��,5.8,��
2018/10/14,01:50,0.773,1.170,0.818,1.464,1.050,0.457,0.803,0.762,�k��,6.3,��
2018/10/14,02:00,0.775,1.167,0.819,1.462,1.051,0.458,0.801,0.760,�k�k��,6.1,��
2018/10/14,02:10,0.773,1.168,0.821,1.463,1.053,0.457,0.801,0.761,�k�k��,6.2,��
2018/10/14,02:20,0.774,1.168,0.819,1.461,1.052,0.456,0.801,0.759,�k��,5.6,��
2018/10/14,02:30,0.775,1.166,0.819,1.460,1.051,0.458,0.801,0.761,�k��,5.8,��
2018/10/14,02:40,0.774,1.168,0.819,1.464,1.051,0.456,0.803,0.762,�k��,6.2,��
2018/10/14,02:50,0.774,1.169,0.821,1.463,1.051,0.457,0.801,0.763,�k��,6.5,��
2018/10/14,03:00,0.774,1.170,0.821,1.462,1.049,0.459,0.802,0.761,�k�k��,6.6,��
2018/10/14,03:10,0.775,1.169,0.819,1.465,1.051,0.459,0.801,0.761,�k�k��,5.8,��
2018/10/14,03:20,0.773,1.171,0.821,1.464,1.051,0.458,0.802,0.762,�k�k��,6.8,��
2018/10/14,03:30,0.775,1.169,0.821,1.463,1.053,0.458,0.803,0.761,�k�k��,6.6,��
2018/10/14,03:40,0.773,1.170,0.822,1.459,1.050,0.458,0.801,0.762,�k�k��,7.3,��
2018/10/14,03:50,0.774,1.166,0.821,1.464,1.053,0.458,0.802,0.762,�k�k��,7.9,��
2018/10/14,04:00,0.774,1.169,0.821,1.465,1.053,0.457,0.803,0.763,�k�k��,7.7,��
2018/10/14,04:10,0.774,1.168,0.823,1.462,1.052,0.457,0.801,0.764,�k�k��,7.4,��
2018/10/14,04:20,0.774,1.167,0.821,1.464,1.053,0.456,0.801,0.760,�k�k��,6.9,��
2018/10/14,04:30,0.773,1.169,0.822,1.463,1.051,0.457,0.801,0.762,�k��,6.9,��
2018/10/14,04:40,0.775,1.169,0.821,1.464,1.052,0.458,0.802,0.761,�k�k��,6.7,��
2018/10/14,04:50,0.775,1.168,0.820,1.462,1.053,0.458,0.803,0.763,�k��,6.2,��
2018/10/14,05:00,0.775,1.170,0.821,1.467,1.053,0.456,0.801,0.762,�k�k��,5.8,��
2018/10/14,05:10,0.774,1.170,0.820,1.463,1.057,0.458,0.803,0.762,�k�k��,5.0,��
2018/10/14,05:20,0.776,1.168,0.821,1.466,1.052,0.457,0.801,0.761,�k�k��,4.8,��
2018/10/14,05:30,0.774,1.167,0.819,1.466,1.052,0.457,0.802,0.763,�k�k��,5.7,��
2018/10/14,05:40,0.774,1.170,0.820,1.464,1.053,0.458,0.803,0.763,�k�k��,6.6,��
2018/10/14,05:50,0.773,1.172,0.820,1.463,1.053,0.458,0.802,0.762,�k�k��,5.8,��
2018/10/14,06:00,0.772,1.167,0.819,1.464,1.053,0.459,0.803,0.763,�k�k��,5.4,��
2018/10/14,06:10,0.776,1.170,0.822,1.462,1.054,0.458,0.804,0.763,�k�k��,5.9,��
2018/10/14,06:20,0.773,1.171,0.820,1.463,1.055,0.457,0.801,0.763,�k�k��,6.5,��
2018/10/14,06:30,0.776,1.169,0.822,1.466,1.052,0.458,0.801,0.763,�k�k��,5.9,��
2018/10/14,06:40,0.776,1.170,0.822,1.465,1.051,0.459,0.802,0.762,�k�k��,7.4,��
2018/10/14,06:50,0.773,1.167,0.821,1.465,1.053,0.459,0.801,0.762,�k�k��,7.6,��
2018/10/14,07:00,0.777,1.169,0.821,1.464,1.054,0.457,0.802,0.762,�k�k��,6.7,��
2018/10/14,07:10,0.774,1.173,0.821,1.466,1.054,0.459,0.801,0.761,�k�k��,6.8,��
2018/10/14,07:20,0.776,1.171,0.821,1.467,1.055,0.459,0.802,0.762,�k�k��,7.5,��
2018/10/14,07:30,0.776,1.172,0.824,1.466,1.051,0.459,0.800,0.762,�k�k��,8.5,��
2018/10/14,07:40,0.776,1.168,0.823,1.467,1.053,0.459,0.800,0.763,�k�k��,7.9,��
2018/10/14,07:50,0.774,1.173,0.822,1.464,1.054,0.458,0.801,0.763,�k�k��,7.1,��
2018/10/14,08:00,0.774,1.172,0.822,1.466,1.054,0.458,0.801,0.761,�k�k��,6.6,��
2018/10/14,08:10,0.776,1.168,0.823,1.464,1.052,0.459,0.801,0.761,�k�k��,6.1,��
2018/10/14,08:20,0.776,1.171,0.824,1.463,1.054,0.457,0.802,0.762,�k��,6.2,��
2018/10/14,08:30,0.774,1.169,0.822,1.464,1.054,0.458,0.801,0.763,�k��,6.2,��
2018/10/14,08:40,0.776,1.171,0.821,1.466,1.054,0.458,0.800,0.762,�k�k��,6.5,��
2018/10/14,08:50,0.777,1.172,0.822,1.466,1.053,0.459,0.800,0.763,�k�k��,6.4,��
2018/10/14,09:00,0.777,1.172,0.824,1.467,1.055,0.458,0.802,0.763,�k�k��,6.0,��
2018/10/14,09:10,0.776,1.170,0.822,1.467,1.052,0.460,0.803,0.763,�k�k��,5.8,��
2018/10/14,09:20,0.775,1.172,0.822,1.467,1.054,0.460,0.802,0.764,�k�k��,5.5,��
2018/10/14,09:30,0.777,1.173,0.824,1.467,1.056,0.458,0.801,0.761,�k�k��,4.3,��
2018/10/14,09:40,0.778,1.172,0.824,1.467,1.055,0.457,0.802,0.762,�k��,5.1,��
2018/10/14,09:50,0.777,1.173,0.823,1.467,1.053,0.459,0.803,0.761,�k��,4.0,��
2018/10/14,10:00,0.776,1.173,0.820,1.468,1.051,0.458,0.802,0.762,�k�k��,4.5,��
2018/10/14,10:10,0.778,1.173,0.823,1.467,1.053,0.458,0.802,0.762,�k�k��,5.1,��
2018/10/14,10:20,0.778,1.174,0.823,1.471,1.055,0.457,0.803,0.762,�k�k��,4.1,��
2018/10/14,10:30,0.777,1.173,0.824,1.468,1.052,0.459,0.805,0.762,�k�k��,4.8,��
2018/10/14,10:40,0.775,1.172,0.823,1.471,1.054,0.457,0.802,0.761,�k�k��,3.7,��
2018/10/14,10:50,0.774,1.170,0.824,1.469,1.053,0.457,0.804,0.761,�k�k��,3.8,��
2018/10/14,11:00,0.776,1.171,0.824,1.468,1.052,0.458,0.802,0.760,�k�k��,2.6,��
2018/10/14,11:10,0.775,1.169,0.821,1.467,1.051,0.457,0.802,0.761,�k�k��,3.3,��
2018/10/14,11:20,0.776,1.169,0.824,1.467,1.055,0.457,0.804,0.760,�k,2.6,��
2018/10/14,11:30,0.777,1.171,0.823,1.467,1.054,0.457,0.802,0.760,�k�k��,2.9,��
2018/10/14,11:40,0.777,1.170,0.822,1.469,1.053,0.457,0.804,0.758,�k,3.2,��
2018/10/14,11:50,0.777,1.169,0.821,1.470,1.056,0.457,0.803,0.760,�k,3.1,��
2018/10/14,12:00,0.775,1.168,0.822,1.469,1.054,0.458,0.805,0.760,�k,2.6,��
2018/10/14,12:10,0.776,1.172,0.822,1.469,1.056,0.457,0.803,0.761,�k�k��,3.6,��
2018/10/14,12:20,0.777,1.173,0.823,1.469,1.054,0.457,0.803,0.760,�k,3.5,��
2018/10/14,12:30,0.778,1.172,0.822,1.470,1.055,0.457,0.803,0.760,�k,3.2,��
2018/10/14,12:40,0.775,1.171,0.820,1.466,1.054,0.457,0.803,0.761,�k,3.8,��
2018/10/14,12:50,0.775,1.173,0.822,1.468,1.055,0.457,0.803,0.759,�k,3.0,��
2018/10/14,13:00,0.777,1.173,0.821,1.466,1.055,0.456,0.802,0.761,�k,3.3,��
2018/10/14,13:10,0.776,1.170,0.823,1.470,1.054,0.457,0.803,0.758,�k,2.6,��
2018/10/14,13:20,0.776,1.171,0.821,1.471,1.054,0.456,0.805,0.761,�k�k��,3.5,��
2018/10/14,13:30,0.776,1.171,0.822,1.470,1.056,0.459,0.805,0.762,�k,2.5,��
2018/10/14,13:40,0.775,1.172,0.824,1.471,1.051,0.458,0.805,0.760,�k�k��,2.9,��
2018/10/14,13:50,0.776,1.171,0.821,1.469,1.055,0.459,0.806,0.760,�k��,2.0,��
2018/10/14,14:00,0.776,1.173,0.824,1.469,1.053,0.458,0.804,0.761,�k,2.6,��
2018/10/14,14:10,0.776,1.171,0.823,1.469,1.055,0.458,0.805,0.762,�k�k��,3.4,��
2018/10/14,14:20,0.777,1.172,0.823,1.471,1.056,0.457,0.803,0.760,�k�k��,3.6,��
2018/10/14,14:30,0.775,1.174,0.823,1.469,1.057,0.456,0.806,0.762,�k�k��,3.4,��
2018/10/14,14:40,0.777,1.174,0.823,1.470,1.056,0.458,0.804,0.759,�k�k��,3.3,��
2018/10/14,14:50,0.776,1.170,0.821,1.470,1.056,0.456,0.804,0.760,�k�k��,3.4,��
2018/10/14,15:00,0.775,1.173,0.822,1.472,1.056,0.457,0.803,0.760,�k�k��,3.7,��
2018/10/14,15:10,0.777,1.175,0.823,1.470,1.055,0.458,0.806,0.761,�k,3.0,��
2018/10/14,15:20,0.775,1.173,0.823,1.469,1.057,0.457,0.806,0.761,�k,2.6,��
2018/10/14,15:30,0.777,1.175,0.822,1.469,1.054,0.457,0.804,0.760,�k,2.3,��
2018/10/14,15:40,0.779,1.172,0.821,1.471,1.057,0.458,0.805,0.761,�k,2.6,��
2018/10/14,15:50,0.778,1.172,0.823,1.468,1.057,0.458,0.805,0.761,�k,3.3,��
2018/10/14,16:00,0.778,1.173,0.823,1.467,1.058,0.460,0.806,0.761,�k,3.0,��
2018/10/14,16:10,0.775,1.174,0.823,1.471,1.056,0.460,0.805,0.761,�k�k��,3.1,��
2018/10/14,16:20,0.777,1.175,0.822,1.469,1.056,0.457,0.805,0.762,�k�k��,2.6,��
2018/10/14,16:30,0.777,1.175,0.821,1.469,1.056,0.457,0.805,0.762,�k,3.0,��
2018/10/14,16:40,0.778,1.176,0.825,1.469,1.055,0.457,0.805,0.762,�k,1.5,��
2018/10/14,16:50,0.777,1.176,0.825,1.470,1.058,0.459,0.802,0.761,�k�k��,0.8,��
2018/10/14,17:00,0.778,1.175,0.825,1.468,1.059,0.460,0.803,0.762,�k�k��,0.9,��
2018/10/14,17:10,0.778,1.178,0.824,1.472,1.060,0.458,0.802,0.763,�k�k��,0.9,��
2018/10/14,17:20,0.779,1.176,0.826,1.469,1.061,0.458,0.802,0.763,���k��,0.9,��
2018/10/14,17:30,0.779,1.177,0.826,1.470,1.059,0.459,0.804,0.764,�k�k��,1.1,��
2018/10/14,17:40,0.777,1.176,0.825,1.469,1.061,0.459,0.805,0.762,�k�k��,1.1,��
2018/10/14,17:50,0.780,1.177,0.825,1.471,1.056,0.457,0.806,0.763,�k�k��,1.7,��
2018/10/14,18:00,0.780,1.176,0.825,1.470,1.061,0.459,0.805,0.763,�k��,2.8,��
2018/10/14,18:10,0.779,1.176,0.825,1.467,1.061,0.459,0.806,0.765,�k�k��,1.9,��
2018/10/14,18:20,0.780,1.175,0.826,1.470,1.060,0.458,0.805,0.762,�k��,1.9,�L
2018/10/14,18:30,0.780,1.176,0.826,1.470,1.058,0.458,0.804,0.761,�k��,3.0,�L
2018/10/14,18:40,0.779,1.176,0.825,1.471,1.061,0.460,0.804,0.763,�k��,2.5,��
2018/10/14,18:50,0.778,1.177,0.827,1.468,1.059,0.459,0.805,0.764,�k��,1.5,�L
2018/10/14,19:00,0.778,1.175,0.824,1.471,1.059,0.460,0.805,0.761,���k��,1.2,�L
2018/10/14,19:10,0.779,1.177,0.825,1.472,1.061,0.458,0.805,0.763,��,2.0,�L
2018/10/14,19:20,0.779,1.178,0.825,1.471,1.059,0.460,0.804,0.762,��,1.2,�L
2018/10/14,19:30,0.778,1.177,0.825,1.470,1.058,0.458,0.804,0.762,���k��,0.6,�L
2018/10/14,19:40,0.780,1.178,0.824,1.471,1.059,0.459,0.805,0.762,���k��,1.4,�L
2018/10/14,19:50,0.778,1.175,0.825,1.469,1.059,0.459,0.805,0.762,���k��,1.2,�L
2018/10/14,20:00,0.778,1.175,0.825,1.470,1.058,0.458,0.805,0.762,���k��,0.9,��
2018/10/14,20:10,0.777,1.177,0.824,1.471,1.057,0.458,0.805,0.764,��,1.2,��
2018/10/14,20:20,0.778,1.175,0.824,1.471,1.059,0.460,0.806,0.763,���쐼,1.7,��
2018/10/14,20:30,0.780,1.173,0.825,1.471,1.057,0.458,0.803,0.762,��,1.7,��
2018/10/14,20:40,0.778,1.175,0.825,1.470,1.058,0.460,0.806,0.762,���쐼,2.0,��
2018/10/14,20:50,0.778,1.175,0.824,1.471,1.058,0.458,0.804,0.763,���쐼,1.5,��
2018/10/14,21:00,0.777,1.177,0.822,1.472,1.060,0.459,0.805,0.763,���쐼,2.0,��
2018/10/14,21:10,0.777,1.175,0.823,1.470,1.057,0.457,0.805,0.762,���쐼,2.2,��
2018/10/14,21:20,0.778,1.173,0.825,1.471,1.058,0.460,0.803,0.762,���쐼,2.0,��
2018/10/14,21:30,0.778,1.172,0.824,1.471,1.054,0.458,0.804,0.762,��,1.4,��
2018/10/14,21:40,0.776,1.173,0.824,1.467,1.055,0.459,0.806,0.763,��,0.9,��
2018/10/14,21:50,0.779,1.173,0.824,1.467,1.057,0.458,0.803,0.761,��,2.0,��
2018/10/14,22:00,0.777,1.176,0.823,1.468,1.056,0.458,0.805,0.763,���k��,1.5,��
2018/10/14,22:10,0.778,1.173,0.826,1.471,1.057,0.459,0.805,0.761,���k��,2.0,��
2018/10/14,22:20,0.778,1.174,0.824,1.470,1.057,0.458,0.804,0.762,���k��,1.4,��
2018/10/14,22:30,0.777,1.173,0.823,1.468,1.056,0.458,0.806,0.761,���k��,1.8,��
2018/10/14,22:40,0.779,1.174,0.823,1.468,1.057,0.458,0.803,0.761,���k��,2.0,��
2018/10/14,22:50,0.776,1.176,0.824,1.468,1.058,0.458,0.805,0.760,���k��,2.6,��
2018/10/14,23:00,0.777,1.172,0.823,1.470,1.058,0.457,0.805,0.760,���k��,2.6,��
2018/10/14,23:10,0.777,1.173,0.824,1.467,1.057,0.459,0.804,0.761,���k��,2.2,��
2018/10/14,23:20,0.777,1.173,0.822,1.469,1.054,0.457,0.803,0.762,���k��,2.5,��
2018/10/14,23:30,0.775,1.174,0.823,1.471,1.057,0.458,0.804,0.761,���k��,3.1,��
2018/10/14,23:40,0.778,1.173,0.824,1.468,1.057,0.460,0.803,0.760,�k��,2.9,��
2018/10/14,23:50,0.778,1.172,0.824,1.467,1.056,0.458,0.804,0.763,�k��,2.6,��
